Location: Vancouver
(49.2500°N, 123.1330°W)
Time: 19:12:15
(UTC-07:00)

AO-27 - Visible Passes

Search period start: 20 October 2014 00:00
Search period end: 30 October 2014 00:00
Orbit: 787 x 798 km, 98.7° (Epoch: 20 October)

Date Brightness Start Highest point End Pass type
(mag) Time Alt. Az. Time Alt. Az. Time Alt. Az.
20 Oct 10.7 02:37:31 10° NE 02:37:35 10° NE 02:37:35 10° NE visible
20 Oct 9.5 04:16:29 10° N 04:18:21 22° N 04:18:21 22° N visible
20 Oct 9.8 05:58:45 10° NW 05:59:07 10° NW 05:59:07 10° NW visible
21 Oct 9.8 03:47:34 10° NNE 03:49:04 20° NNE 03:49:04 20° NNE visible
21 Oct 9.6 05:28:21 10° NNW 05:29:50 15° NNW 05:29:50 15° NNW visible
22 Oct 10.2 03:18:50 10° NNE 03:19:47 15° NNE 03:19:47 15° NNE visible
22 Oct 9.5 04:58:52 10° N 05:00:33 18° NNW 05:00:33 18° NNW visible
23 Oct 10.6 02:50:21 10° NNE 02:50:31 11° NE 02:50:31 11° NE visible
23 Oct 9.6 04:29:41 10° N 04:31:16 19° N 04:31:16 19° N visible
24 Oct 9.9 04:00:41 10° NNE 04:01:59 18° N 04:01:59 18° N visible
24 Oct 9.8 05:41:56 10° NNW 05:42:45 12° NNW 05:42:45 12° NNW visible
25 Oct 10.2 03:31:52 10° NNE 03:32:42 15° NNE 03:32:42 15° NNE visible
25 Oct 9.7 05:12:12 10° N 05:13:28 15° NNW 05:13:28 15° NNW visible
26 Oct 10.6 03:03:15 10° NNE 03:03:25 11° NNE 03:03:25 11° NNE visible
26 Oct 9.7 04:42:54 10° N 04:44:11 17° N 04:44:11 17° N visible
27 Oct 9.9 04:13:50 10° N 04:14:54 16° N 04:14:54 16° N visible
28 Oct 10.2 03:44:56 10° NNE 03:45:37 14° NNE 03:45:37 14° NNE visible
28 Oct 9.8 05:25:37 10° NNW 05:26:23 13° NNW 05:26:23 13° NNW visible
29 Oct 10.6 03:16:13 10° NNE 03:16:20 11° NNE 03:16:20 11° NNE visible
29 Oct 9.9 04:56:10 10° N 04:57:06 14° N 04:57:06 14° N visible
